Time,TemperatureF,DewpointF,PressureIn,WindDirection,WindDirectionDegrees,WindSpeedMPH,WindSpeedGustMPH,Humidity,HourlyPrecipIn,Conditions,Clouds,dailyrainin,SoftwareType,DateUTC
2013-07-07 00:01:00,82.0,77.7,29.97,SE,135,4.0,7.0,87,0.00,,,0.00,meteohub,2013-07-07 04:01:00,
2013-07-07 00:02:00,82.0,77.7,29.97,SE,135,7.0,7.0,87,0.00,,,0.00,meteohub,2013-07-07 04:02:00,
2013-07-07 00:04:00,82.0,77.4,29.97,East,90,5.0,7.0,86,0.00,,,0.00,meteohub,2013-07-07 04:04:00,
2013-07-07 00:06:00,82.0,77.4,29.97,East,90,8.0,8.0,86,0.00,,,0.00,meteohub,2013-07-07 04:06:00,
2013-07-07 00:11:00,82.2,77.5,29.97,East,90,8.0,9.0,86,0.00,,,0.00,meteohub,2013-07-07 04:11:00,
2013-07-07 00:16:00,82.2,77.2,29.97,East,90,6.0,9.0,85,0.00,,,0.00,meteohub,2013-07-07 04:16:00,
2013-07-07 00:21:00,82.4,77.4,29.97,East,90,6.0,11.0,85,0.00,,,0.00,meteohub,2013-07-07 04:21:00,
2013-07-07 00:26:00,82.4,77.4,29.97,ESE,113,7.0,11.0,85,0.00,,,0.00,meteohub,2013-07-07 04:26:00,
2013-07-07 00:31:00,82.4,77.4,29.97,ENE,68,6.0,11.0,85,0.00,,,0.00,meteohub,2013-07-07 04:31:00,
2013-07-07 00:36:00,82.2,77.2,29.97,East,90,7.0,8.0,85,0.00,,,0.00,meteohub,2013-07-07 04:36:00,
2013-07-07 00:41:00,82.2,77.2,29.97,SE,135,5.0,9.0,85,0.00,,,0.00,meteohub,2013-07-07 04:41:00,
2013-07-07 00:47:00,82.2,77.2,29.97,South,180,4.0,9.0,85,0.00,,,0.00,meteohub,2013-07-07 04:47:00,
2013-07-07 00:52:00,82.0,77.0,29.97,East,90,5.0,9.0,85,0.00,,,0.00,meteohub,2013-07-07 04:52:00,
2013-07-07 00:57:00,82.0,77.0,29.97,East,90,5.0,8.0,85,0.00,,,0.00,meteohub,2013-07-07 04:57:00,
2013-07-07 01:02:00,82.0,77.4,29.97,South,180,3.0,7.0,86,0.00,,,0.00,meteohub,2013-07-07 05:02:00,
2013-07-07 01:07:00,81.9,77.2,29.96,ESE,113,2.0,7.0,86,0.00,,,0.00,meteohub,2013-07-07 05:07:00,
2013-07-07 01:12:00,81.9,77.5,29.96,East,90,5.0,7.0,87,0.00,,,0.00,meteohub,2013-07-07 05:12:00,
2013-07-07 01:17:00,81.9,77.5,29.96,SE,135,6.0,7.0,87,0.00,,,0.00,meteohub,2013-07-07 05:17:00,
2013-07-07 01:22:00,81.9,77.2,29.96,East,90,5.0,7.0,86,0.00,,,0.00,meteohub,2013-07-07 05:22:00,
2013-07-07 01:27:00,81.9,77.5,29.96,East,90,6.0,7.0,87,0.00,,,0.00,meteohub,2013-07-07 05:27:00,
2013-07-07 01:32:00,81.9,77.5,29.96,East,90,5.0,8.0,87,0.00,,,0.00,meteohub,2013-07-07 05:32:00,
2013-07-07 01:37:00,81.9,77.2,29.96,East,90,6.0,8.0,86,0.00,,,0.00,meteohub,2013-07-07 05:37:00,
2013-07-07 01:42:00,81.9,77.2,29.96,SE,135,4.0,8.0,86,0.00,,,0.00,meteohub,2013-07-07 05:42:00,
2013-07-07 01:47:00,81.7,77.4,29.96,SE,135,4.0,7.0,87,0.00,,,0.00,meteohub,2013-07-07 05:47:00,
2013-07-07 01:52:00,81.7,77.0,29.95,East,90,3.0,7.0,86,0.00,,,0.00,meteohub,2013-07-07 05:52:00,
2013-07-07 01:57:00,81.7,77.0,29.95,East,90,5.0,6.0,86,0.00,,,0.00,meteohub,2013-07-07 05:57:00,
2013-07-07 02:02:00,81.7,77.0,29.95,NE,45,4.0,6.0,86,0.00,,,0.00,meteohub,2013-07-07 06:02:00,
2013-07-07 02:07:00,81.5,76.8,29.95,ESE,113,4.0,8.0,86,0.00,,,0.00,meteohub,2013-07-07 06:07:00,
2013-07-07 02:12:00,81.5,76.8,29.94,SE,135,3.0,8.0,86,0.00,,,0.00,meteohub,2013-07-07 06:12:00,
2013-07-07 02:17:00,81.3,77.0,29.95,East,90,3.0,8.0,87,0.00,,,0.00,meteohub,2013-07-07 06:17:00,
2013-07-07 02:22:00,81.3,77.0,29.94,East,90,2.0,4.0,87,0.00,,,0.00,meteohub,2013-07-07 06:22:00,
2013-07-07 02:27:00,81.1,76.8,29.94,SE,135,4.0,5.0,87,0.00,,,0.00,meteohub,2013-07-07 06:27:00,
2013-07-07 02:32:00,81.3,77.0,29.94,South,180,2.0,5.0,87,0.00,,,0.00,meteohub,2013-07-07 06:32:00,
2013-07-07 02:37:00,81.1,76.8,29.94,East,90,7.0,7.0,87,0.00,,,0.00,meteohub,2013-07-07 06:37:00,
2013-07-07 02:42:00,81.3,77.0,29.94,East,90,3.0,7.0,87,0.00,,,0.00,meteohub,2013-07-07 06:42:00,
2013-07-07 02:47:00,81.1,76.8,29.94,East,90,4.0,7.0,87,0.00,,,0.00,meteohub,2013-07-07 06:47:00,
2013-07-07 02:52:00,81.1,77.2,29.93,East,90,4.0,7.0,88,0.00,,,0.00,meteohub,2013-07-07 06:52:00,
2013-07-07 02:57:00,81.1,76.8,29.94,East,90,3.0,5.0,87,0.00,,,0.00,meteohub,2013-07-07 06:57:00,
2013-07-07 03:02:00,80.8,76.8,29.93,SE,135,4.0,5.0,88,0.00,,,0.00,meteohub,2013-07-07 07:02:00,
2013-07-07 03:07:00,81.0,77.0,29.94,East,90,3.0,5.0,88,0.00,,,0.00,meteohub,2013-07-07 07:07:00,
2013-07-07 03:12:00,80.8,76.8,29.94,SE,135,2.0,5.0,88,0.00,,,0.00,meteohub,2013-07-07 07:12:00,
2013-07-07 03:17:00,80.6,76.6,29.94,NE,45,2.0,4.0,88,0.00,,,0.00,meteohub,2013-07-07 07:17:00,
2013-07-07 03:22:00,80.4,76.8,29.94,East,90,2.0,4.0,89,0.00,,,0.00,meteohub,2013-07-07 07:22:00,
2013-07-07 03:27:00,80.4,77.2,29.93,East,90,2.0,3.0,90,0.00,,,0.00,meteohub,2013-07-07 07:27:00,
2013-07-07 03:32:00,80.4,77.2,29.93,SE,135,3.0,4.0,90,0.00,,,0.00,meteohub,2013-07-07 07:32:00,
2013-07-07 03:37:00,80.4,77.2,29.94,East,90,2.0,4.0,90,0.00,,,0.00,meteohub,2013-07-07 07:37:00,
2013-07-07 03:42:00,80.4,77.5,29.93,East,90,3.0,3.0,91,0.00,,,0.00,meteohub,2013-07-07 07:42:00,
2013-07-07 03:47:00,80.4,77.5,29.93,East,90,3.0,4.0,91,0.00,,,0.00,meteohub,2013-07-07 07:47:00,
2013-07-07 03:52:00,80.4,77.5,29.93,East,90,2.0,4.0,91,0.00,,,0.00,meteohub,2013-07-07 07:52:00,
2013-07-07 03:57:00,80.6,77.4,29.93,NE,45,3.0,4.0,90,0.00,,,0.00,meteohub,2013-07-07 07:57:00,
2013-07-07 04:02:00,80.6,77.0,29.94,NE,45,2.0,6.0,89,0.00,,,0.00,meteohub,2013-07-07 08:02:00,
2013-07-07 04:07:00,80.6,76.6,29.93,East,90,4.0,6.0,88,0.00,,,0.00,meteohub,2013-07-07 08:07:00,
2013-07-07 04:12:00,80.4,76.5,29.93,East,90,2.0,6.0,88,0.00,,,0.00,meteohub,2013-07-07 08:12:00,
2013-07-07 04:17:00,80.4,76.5,29.93,ESE,113,3.0,4.0,88,0.00,,,0.00,meteohub,2013-07-07 08:17:00,
2013-07-07 04:22:00,80.4,76.5,29.93,East,90,3.0,4.0,88,0.00,,,0.00,meteohub,2013-07-07 08:22:00,
2013-07-07 04:27:00,80.4,76.5,29.93,East,90,4.0,4.0,88,0.00,,,0.00,meteohub,2013-07-07 08:27:00,
2013-07-07 04:32:00,80.4,76.5,29.93,East,90,2.0,4.0,88,0.00,,,0.00,meteohub,2013-07-07 08:32:00,
2013-07-07 04:37:00,80.2,76.3,29.93,East,90,2.0,4.0,88,0.00,,,0.00,meteohub,2013-07-07 08:37:00,
2013-07-07 04:42:00,80.1,76.5,29.93,East,90,2.0,4.0,89,0.00,,,0.00,meteohub,2013-07-07 08:42:00,
2013-07-07 04:47:00,80.1,76.8,29.93,SE,135,2.0,2.0,90,0.00,,,0.00,meteohub,2013-07-07 08:47:00,
2013-07-07 04:52:00,80.2,77.0,29.92,East,90,2.0,2.0,90,0.00,,,0.00,meteohub,2013-07-07 08:52:00,
2013-07-07 04:57:00,80.2,77.0,29.92,East,90,3.0,3.0,90,0.00,,,0.00,meteohub,2013-07-07 08:57:00,
2013-07-07 05:02:00,80.4,77.5,29.93,East,90,8.0,8.0,91,0.00,,,0.00,meteohub,2013-07-07 09:02:00,
2013-07-07 05:07:00,80.4,77.2,29.93,SE,135,2.0,8.0,90,0.00,,,0.00,meteohub,2013-07-07 09:07:00,
2013-07-07 05:12:00,80.4,77.2,29.92,East,90,5.0,8.0,90,0.00,,,0.00,meteohub,2013-07-07 09:12:00,
2013-07-07 05:17:00,80.6,77.0,29.92,East,90,4.0,8.0,89,0.00,,,0.00,meteohub,2013-07-07 09:17:00,
2013-07-07 05:22:00,80.4,76.8,29.93,East,90,2.0,6.0,89,0.00,,,0.00,meteohub,2013-07-07 09:22:00,
2013-07-07 05:27:00,80.4,76.8,29.92,East,90,4.0,6.0,89,0.00,,,0.00,meteohub,2013-07-07 09:27:00,
2013-07-07 05:32:00,80.4,76.8,29.93,East,90,2.0,4.0,89,0.00,,,0.00,meteohub,2013-07-07 09:32:00,
2013-07-07 05:38:00,80.4,77.2,29.93,East,90,2.0,4.0,90,0.00,,,0.00,meteohub,2013-07-07 09:38:00,
2013-07-07 05:43:00,80.2,77.0,29.92,SE,135,3.0,7.0,90,0.00,,,0.00,meteohub,2013-07-07 09:43:00,
2013-07-07 05:48:00,80.2,77.0,29.93,East,90,2.0,7.0,90,0.00,,,0.00,meteohub,2013-07-07 09:48:00,
2013-07-07 05:53:00,80.1,76.8,29.92,East,90,2.0,7.0,90,0.00,,,0.00,meteohub,2013-07-07 09:53:00,
2013-07-07 05:58:00,80.1,77.2,29.92,East,90,5.0,6.0,91,0.00,,,0.00,meteohub,2013-07-07 09:58:00,
2013-07-07 06:03:00,80.1,77.2,29.92,East,90,3.0,5.0,91,0.00,,,0.00,meteohub,2013-07-07 10:03:00,
2013-07-07 06:08:00,80.1,77.2,29.92,East,90,3.0,5.0,91,0.00,,,0.00,meteohub,2013-07-07 10:08:00,
2013-07-07 06:13:00,79.9,77.0,29.92,NE,45,4.0,6.0,91,0.00,,,0.00,meteohub,2013-07-07 10:13:00,
2013-07-07 06:18:00,79.9,77.0,29.93,East,90,2.0,6.0,91,0.00,,,0.00,meteohub,2013-07-07 10:18:00,
2013-07-07 06:23:00,79.9,77.4,29.93,NE,45,3.0,6.0,92,0.00,,,0.00,meteohub,2013-07-07 10:23:00,
2013-07-07 06:28:00,79.9,77.4,29.93,NE,45,2.0,6.0,92,0.00,,,0.00,meteohub,2013-07-07 10:28:00,
2013-07-07 06:34:00,79.9,77.4,29.93,East,90,3.0,8.0,92,0.00,,,0.00,meteohub,2013-07-07 10:34:00,
2013-07-07 06:39:00,80.1,77.2,29.93,SE,135,4.0,8.0,91,0.00,,,0.00,meteohub,2013-07-07 10:39:00,
2013-07-07 06:44:00,80.2,77.4,29.93,East,90,3.0,4.0,91,0.00,,,0.00,meteohub,2013-07-07 10:44:00,
2013-07-07 06:49:00,80.2,77.0,29.93,ENE,68,5.0,6.0,90,0.00,,,0.00,meteohub,2013-07-07 10:49:00,
2013-07-07 06:54:00,80.4,77.2,29.93,East,90,4.0,6.0,90,0.00,,,0.00,meteohub,2013-07-07 10:54:00,
2013-07-07 06:59:00,80.4,76.8,29.94,East,90,4.0,6.0,89,0.00,,,0.00,meteohub,2013-07-07 10:59:00,
2013-07-07 07:04:00,80.6,77.0,29.94,East,90,7.0,7.0,89,0.00,,,0.00,meteohub,2013-07-07 11:04:00,
2013-07-07 07:09:00,80.6,77.0,29.94,NE,45,2.0,6.0,89,0.00,,,0.00,meteohub,2013-07-07 11:09:00,
2013-07-07 07:14:00,80.6,77.0,29.94,East,90,4.0,7.0,89,0.00,,,0.00,meteohub,2013-07-07 11:14:00,
2013-07-07 07:19:00,80.8,76.8,29.94,NE,45,5.0,7.0,88,0.00,,,0.00,meteohub,2013-07-07 11:19:00,
2013-07-07 07:25:00,80.8,76.8,29.94,East,90,4.0,7.0,88,0.00,,,0.00,meteohub,2013-07-07 11:25:00,
2013-07-07 07:30:00,80.8,77.2,29.94,East,90,3.0,7.0,89,0.00,,,0.00,meteohub,2013-07-07 11:30:00,
2013-07-07 07:35:00,81.1,77.5,29.94,East,90,3.0,7.0,89,0.00,,,0.00,meteohub,2013-07-07 11:35:00,
2013-07-07 07:40:00,82.4,78.8,29.95,NW,315,2.0,7.0,89,0.00,,,0.00,meteohub,2013-07-07 11:40:00,
2013-07-07 07:45:00,84.2,78.4,29.95,East,90,6.0,6.0,83,0.00,,,0.00,meteohub,2013-07-07 11:45:00,
2013-07-07 07:50:00,84.4,78.3,29.95,East,90,8.0,11.0,82,0.00,,,0.00,meteohub,2013-07-07 11:50:00,
2013-07-07 07:55:00,84.4,77.9,29.95,East,90,10.0,13.0,81,0.00,,,0.00,meteohub,2013-07-07 11:55:00,
2013-07-07 08:00:00,84.9,77.7,29.95,East,90,10.0,13.0,79,0.00,,,0.00,meteohub,2013-07-07 12:00:00,
2013-07-07 08:05:00,84.4,77.5,29.95,SE,135,11.0,13.0,80,0.00,,,0.00,meteohub,2013-07-07 12:05:00,
2013-07-07 08:10:00,84.2,77.7,29.95,SE,135,9.0,11.0,81,0.00,,,0.00,meteohub,2013-07-07 12:10:00,
2013-07-07 08:16:00,84.9,78.8,29.95,East,90,6.0,11.0,82,0.00,,,0.00,meteohub,2013-07-07 12:16:00,
2013-07-07 08:21:00,85.3,78.1,29.96,East,90,9.0,11.0,79,0.00,,,0.00,meteohub,2013-07-07 12:21:00,
2013-07-07 08:26:00,85.3,77.2,29.96,East,90,12.0,12.0,77,0.00,,,0.00,meteohub,2013-07-07 12:26:00,
2013-07-07 08:31:00,85.5,77.7,29.96,ESE,113,9.0,12.0,78,0.00,,,0.00,meteohub,2013-07-07 12:31:00,
2013-07-07 08:36:00,85.6,77.2,29.96,NW,315,14.0,14.0,76,0.00,,,0.00,meteohub,2013-07-07 12:36:00,
2013-07-07 08:41:00,85.3,77.2,29.96,NE,45,12.0,14.0,77,0.00,,,0.00,meteohub,2013-07-07 12:41:00,
2013-07-07 08:46:00,85.3,77.7,29.96,East,90,13.0,14.0,78,0.00,,,0.00,meteohub,2013-07-07 12:46:00,
2013-07-07 08:51:00,85.8,77.7,29.96,East,90,10.0,14.0,77,0.00,,,0.00,meteohub,2013-07-07 12:51:00,
2013-07-07 08:56:00,85.3,77.7,29.96,SE,135,8.0,15.0,78,0.00,,,0.00,meteohub,2013-07-07 12:56:00,
2013-07-07 09:02:00,84.2,77.0,29.96,East,90,7.0,15.0,79,0.00,,,0.00,meteohub,2013-07-07 13:02:00,
2013-07-07 09:07:00,84.6,77.7,29.96,East,90,12.0,15.0,80,0.00,,,0.00,meteohub,2013-07-07 13:07:00,
2013-07-07 09:12:00,85.6,78.4,29.96,East,90,11.0,14.0,79,0.00,,,0.00,meteohub,2013-07-07 13:12:00,
2013-07-07 09:17:00,86.5,77.7,29.96,East,90,6.0,15.0,75,0.00,,,0.00,meteohub,2013-07-07 13:17:00,
2013-07-07 09:22:00,87.6,77.9,29.96,NE,45,10.0,15.0,73,0.00,,,0.00,meteohub,2013-07-07 13:22:00,
2013-07-07 09:27:00,87.8,77.7,29.97,NE,45,10.0,15.0,72,0.00,,,0.00,meteohub,2013-07-07 13:27:00,
2013-07-07 09:32:00,87.1,78.3,29.97,SE,135,11.0,15.0,75,0.00,,,0.00,meteohub,2013-07-07 13:32:00,
2013-07-07 09:37:00,86.7,78.3,29.97,East,90,16.0,16.0,76,0.00,,,0.00,meteohub,2013-07-07 13:37:00,
2013-07-07 09:42:00,86.2,78.1,29.97,East,90,11.0,16.0,77,0.00,,,0.00,meteohub,2013-07-07 13:42:00,
2013-07-07 09:47:00,86.4,75.9,29.97,ESE,113,13.0,16.0,71,0.00,,,0.00,meteohub,2013-07-07 13:47:00,
2013-07-07 09:52:00,86.0,76.8,29.97,East,90,15.0,16.0,74,0.00,,,0.00,meteohub,2013-07-07 13:52:00,
2013-07-07 09:57:00,86.0,77.5,29.97,East,90,14.0,15.0,76,0.00,,,0.00,meteohub,2013-07-07 13:57:00,
2013-07-07 10:02:00,86.2,78.1,29.97,East,90,8.0,15.0,77,0.00,,,0.00,meteohub,2013-07-07 14:02:00,
2013-07-07 10:07:00,87.1,77.7,29.97,East,90,10.0,15.0,74,0.00,,,0.00,meteohub,2013-07-07 14:07:00,
2013-07-07 10:12:00,87.4,76.8,29.97,East,90,10.0,16.0,71,0.00,,,0.00,meteohub,2013-07-07 14:12:00,
2013-07-07 10:17:00,87.3,76.6,29.97,East,90,11.0,16.0,71,0.00,,,0.00,meteohub,2013-07-07 14:17:00,
2013-07-07 10:22:00,87.4,77.4,29.97,SE,135,8.0,16.0,72,0.00,,,0.00,meteohub,2013-07-07 14:22:00,
2013-07-07 10:27:00,87.1,77.4,29.97,WNW,293,6.0,15.0,73,0.00,,,0.00,meteohub,2013-07-07 14:27:00,
2013-07-07 10:32:00,87.8,77.2,29.97,East,90,10.0,15.0,71,0.00,,,0.00,meteohub,2013-07-07 14:32:00,
2013-07-07 10:37:00,87.3,76.6,29.98,East,90,11.0,15.0,71,0.00,,,0.00,meteohub,2013-07-07 14:37:00,
2013-07-07 10:42:00,87.1,77.4,29.97,NE,45,14.0,17.0,73,0.00,,,0.00,meteohub,2013-07-07 14:42:00,
2013-07-07 10:47:00,88.3,77.4,29.97,East,90,11.0,17.0,70,0.00,,,0.00,meteohub,2013-07-07 14:47:00,
2013-07-07 10:52:00,87.8,77.2,29.97,East,90,14.0,17.0,71,0.00,,,0.00,meteohub,2013-07-07 14:52:00,
2013-07-07 10:57:00,86.9,77.5,29.98,SE,135,10.0,15.0,74,0.00,,,0.00,meteohub,2013-07-07 14:57:00,
2013-07-07 11:02:00,86.9,77.5,29.98,East,90,8.0,15.0,74,0.00,,,0.00,meteohub,2013-07-07 15:02:00,
2013-07-07 11:07:00,87.8,77.7,29.97,East,90,8.0,17.0,72,0.00,,,0.00,meteohub,2013-07-07 15:07:00,
2013-07-07 11:12:00,88.0,77.0,29.97,East,90,13.0,17.0,70,0.00,,,0.00,meteohub,2013-07-07 15:12:00,
2013-07-07 11:17:00,87.3,77.5,29.98,East,90,15.0,17.0,73,0.00,,,0.00,meteohub,2013-07-07 15:17:00,
2013-07-07 11:22:00,86.7,77.9,29.98,East,90,10.0,15.0,75,0.00,,,0.00,meteohub,2013-07-07 15:22:00,
2013-07-07 11:27:00,87.6,77.5,29.98,East,90,13.0,17.0,72,0.00,,,0.00,meteohub,2013-07-07 15:27:00,
2013-07-07 11:32:00,86.9,78.1,29.97,East,90,9.0,17.0,75,0.00,,,0.00,meteohub,2013-07-07 15:32:00,
2013-07-07 11:37:00,87.6,77.5,29.98,SE,135,11.0,16.0,72,0.00,,,0.00,meteohub,2013-07-07 15:37:00,
2013-07-07 11:42:00,87.1,77.4,29.97,East,90,11.0,15.0,73,0.00,,,0.00,meteohub,2013-07-07 15:42:00,
2013-07-07 11:47:00,86.9,77.5,29.97,NE,45,12.0,15.0,74,0.00,,,0.00,meteohub,2013-07-07 15:47:00,
2013-07-07 11:52:00,87.6,76.6,29.98,SE,135,10.0,15.0,70,0.00,,,0.00,meteohub,2013-07-07 15:52:00,
2013-07-07 11:57:00,88.2,77.5,29.98,East,90,8.0,17.0,71,0.00,,,0.00,meteohub,2013-07-07 15:57:00,
2013-07-07 12:02:00,88.9,77.9,29.98,East,90,11.0,17.0,70,0.00,,,0.00,meteohub,2013-07-07 16:02:00,
2013-07-07 12:07:00,88.7,77.7,29.97,East,90,12.0,17.0,70,0.00,,,0.00,meteohub,2013-07-07 16:07:00,
2013-07-07 12:12:00,87.8,77.2,29.98,North,0,7.0,14.0,71,0.00,,,0.00,meteohub,2013-07-07 16:12:00,
2013-07-07 12:17:00,87.4,77.4,29.97,NE,45,11.0,12.0,72,0.00,,,0.00,meteohub,2013-07-07 16:17:00,
2013-07-07 12:22:00,87.3,77.5,29.97,East,90,9.0,15.0,73,0.00,,,0.00,meteohub,2013-07-07 16:22:00,
2013-07-07 12:27:00,88.0,77.9,29.97,East,90,11.0,15.0,72,0.00,,,0.00,meteohub,2013-07-07 16:27:00,
2013-07-07 12:32:00,87.1,77.4,29.97,East,90,17.0,17.0,73,0.00,,,0.00,meteohub,2013-07-07 16:32:00,
2013-07-07 12:37:00,86.4,77.5,29.97,SW,225,14.0,18.0,75,0.00,,,0.00,meteohub,2013-07-07 16:37:00,
2013-07-07 12:42:00,87.4,76.8,29.97,East,90,10.0,18.0,71,0.00,,,0.00,meteohub,2013-07-07 16:42:00,
2013-07-07 12:47:00,87.4,77.7,29.97,SE,135,11.0,18.0,73,0.00,,,0.00,meteohub,2013-07-07 16:47:00,
2013-07-07 12:52:00,87.6,77.0,29.97,East,90,15.0,17.0,71,0.00,,,0.00,meteohub,2013-07-07 16:52:00,
2013-07-07 12:57:00,87.3,77.5,29.96,East,90,11.0,16.0,73,0.00,,,0.00,meteohub,2013-07-07 16:57:00,
2013-07-07 13:02:00,87.8,78.4,29.97,East,90,11.0,18.0,74,0.00,,,0.00,meteohub,2013-07-07 17:02:00,
2013-07-07 13:07:00,87.3,77.2,29.96,SE,135,5.0,18.0,72,0.00,,,0.00,meteohub,2013-07-07 17:07:00,
2013-07-07 13:12:00,87.8,78.1,29.96,East,90,8.0,18.0,73,0.00,,,0.00,meteohub,2013-07-07 17:12:00,
2013-07-07 13:17:00,87.6,77.9,29.97,East,90,12.0,18.0,73,0.00,,,0.00,meteohub,2013-07-07 17:17:00,
2013-07-07 13:22:00,86.4,77.9,29.96,East,90,11.0,14.0,76,0.00,,,0.00,meteohub,2013-07-07 17:22:00,
2013-07-07 13:27:00,85.8,78.6,29.96,SE,135,11.0,16.0,79,0.00,,,0.00,meteohub,2013-07-07 17:27:00,
2013-07-07 13:32:00,85.8,78.6,29.96,NNE,23,7.0,16.0,79,0.00,,,0.00,meteohub,2013-07-07 17:32:00,
2013-07-07 13:37:00,86.9,77.5,29.95,SE,135,11.0,15.0,74,0.00,,,0.00,meteohub,2013-07-07 17:37:00,
2013-07-07 13:42:00,86.7,77.9,29.96,East,90,11.0,15.0,75,0.00,,,0.00,meteohub,2013-07-07 17:42:00,
2013-07-07 13:47:00,86.7,77.4,29.96,East,90,13.0,16.0,74,0.00,,,0.00,meteohub,2013-07-07 17:47:00,
2013-07-07 13:52:00,87.8,77.7,29.96,East,90,13.0,17.0,72,0.00,,,0.00,meteohub,2013-07-07 17:52:00,
2013-07-07 13:57:00,87.8,78.1,29.95,NE,45,11.0,17.0,73,0.00,,,0.00,meteohub,2013-07-07 17:57:00,
2013-07-07 14:02:00,88.0,78.3,29.95,NE,45,8.0,17.0,73,0.00,,,0.00,meteohub,2013-07-07 18:02:00,
2013-07-07 14:07:00,87.6,77.5,29.95,NE,45,9.0,17.0,72,0.00,,,0.00,meteohub,2013-07-07 18:07:00,
2013-07-07 14:12:00,83.1,77.4,29.96,North,0,11.0,22.0,83,0.00,,,0.00,meteohub,2013-07-07 18:12:00,
2013-07-07 14:17:00,78.8,77.2,29.95,North,0,5.0,22.0,95,0.09,,,0.09,meteohub,2013-07-07 18:17:00,
2013-07-07 14:22:00,78.1,77.7,29.95,East,90,2.0,22.0,99,0.15,,,0.15,meteohub,2013-07-07 18:22:00,
2013-07-07 14:27:00,78.4,78.1,29.95,North,0,0.0,16.0,99,0.15,,,0.15,meteohub,2013-07-07 18:27:00,
2013-07-07 14:32:00,79.3,79.0,29.95,East,90,2.0,6.0,99,0.15,,,0.15,meteohub,2013-07-07 18:32:00,
2013-07-07 14:37:00,79.9,79.5,29.94,East,90,13.0,13.0,99,0.15,,,0.15,meteohub,2013-07-07 18:37:00,
2013-07-07 14:42:00,81.7,81.3,29.95,East,90,7.0,13.0,99,0.15,,,0.15,meteohub,2013-07-07 18:42:00,
2013-07-07 14:47:00,83.5,80.2,29.94,East,90,15.0,15.0,90,0.15,,,0.15,meteohub,2013-07-07 18:47:00,
2013-07-07 14:52:00,84.6,79.5,29.94,East,90,11.0,15.0,85,0.15,,,0.15,meteohub,2013-07-07 18:52:00,
2013-07-07 14:57:00,84.9,79.5,29.94,NE,45,15.0,17.0,84,0.15,,,0.15,meteohub,2013-07-07 18:57:00,
2013-07-07 15:02:00,84.9,78.8,29.94,SE,135,14.0,17.0,82,0.15,,,0.15,meteohub,2013-07-07 19:02:00,
2013-07-07 15:07:00,85.8,79.3,29.94,East,90,12.0,17.0,81,0.15,,,0.15,meteohub,2013-07-07 19:07:00,
2013-07-07 15:12:00,86.7,79.3,29.94,East,90,7.0,16.0,79,0.13,,,0.15,meteohub,2013-07-07 19:12:00,
2013-07-07 15:17:00,86.7,78.6,29.94,East,90,11.0,16.0,77,0.01,,,0.15,meteohub,2013-07-07 19:17:00,
2013-07-07 15:22:00,87.1,78.3,29.93,East,90,16.0,16.0,75,0.00,,,0.15,meteohub,2013-07-07 19:22:00,
2013-07-07 15:27:00,87.1,79.0,29.93,East,90,10.0,16.0,77,0.00,,,0.15,meteohub,2013-07-07 19:27:00,
2013-07-07 15:32:00,87.3,78.8,29.93,East,90,12.0,17.0,76,0.00,,,0.15,meteohub,2013-07-07 19:32:00,
2013-07-07 15:37:00,87.1,78.3,29.93,East,90,13.0,18.0,75,0.00,,,0.15,meteohub,2013-07-07 19:37:00,
2013-07-07 15:42:00,87.3,78.4,29.93,East,90,19.0,19.0,75,0.00,,,0.15,meteohub,2013-07-07 19:42:00,
2013-07-07 15:47:00,87.3,78.8,29.93,ESE,113,10.0,19.0,76,0.00,,,0.15,meteohub,2013-07-07 19:47:00,
2013-07-07 15:52:00,86.9,78.4,29.93,East,90,17.0,19.0,76,0.00,,,0.15,meteohub,2013-07-07 19:52:00,
2013-07-07 15:57:00,87.1,78.6,29.92,North,0,15.0,19.0,76,0.00,,,0.15,meteohub,2013-07-07 19:57:00,
2013-07-07 16:02:00,87.4,77.7,29.92,East,90,15.0,17.0,73,0.00,,,0.15,meteohub,2013-07-07 20:02:00,
2013-07-07 16:07:00,87.8,78.4,29.92,East,90,11.0,17.0,74,0.00,,,0.15,meteohub,2013-07-07 20:07:00,
2013-07-07 16:12:00,87.4,78.1,29.92,East,90,13.0,18.0,74,0.00,,,0.15,meteohub,2013-07-07 20:12:00,
2013-07-07 16:17:00,87.4,78.1,29.92,East,90,16.0,18.0,74,0.00,,,0.15,meteohub,2013-07-07 20:17:00,
2013-07-07 16:22:00,87.1,78.3,29.92,NE,45,14.0,16.0,75,0.00,,,0.15,meteohub,2013-07-07 20:22:00,
2013-07-07 16:27:00,87.6,77.9,29.91,East,90,17.0,19.0,73,0.00,,,0.15,meteohub,2013-07-07 20:27:00,
2013-07-07 16:32:00,87.1,77.0,29.91,East,90,15.0,21.0,72,0.00,,,0.15,meteohub,2013-07-07 20:32:00,
2013-07-07 16:37:00,86.9,77.5,29.92,East,90,13.0,21.0,74,0.00,,,0.15,meteohub,2013-07-07 20:37:00,
2013-07-07 16:42:00,87.8,77.7,29.92,SE,135,14.0,21.0,72,0.00,,,0.15,meteohub,2013-07-07 20:42:00,
2013-07-07 16:47:00,87.3,77.9,29.92,ENE,68,11.0,18.0,74,0.00,,,0.15,meteohub,2013-07-07 20:47:00,
2013-07-07 16:52:00,87.1,77.7,29.91,East,90,9.0,18.0,74,0.00,,,0.15,meteohub,2013-07-07 20:52:00,
2013-07-07 16:57:00,87.3,77.2,29.91,East,90,12.0,16.0,72,0.00,,,0.15,meteohub,2013-07-07 20:57:00,
2013-07-07 17:02:00,86.9,78.4,29.91,ESE,113,15.0,19.0,76,0.00,,,0.15,meteohub,2013-07-07 21:02:00,
2013-07-07 17:07:00,87.1,77.7,29.91,East,90,12.0,19.0,74,0.00,,,0.15,meteohub,2013-07-07 21:07:00,
2013-07-07 17:12:00,87.1,77.4,29.91,East,90,12.0,19.0,73,0.00,,,0.15,meteohub,2013-07-07 21:12:00,
2013-07-07 17:17:00,86.9,77.2,29.91,East,90,15.0,15.0,73,0.00,,,0.15,meteohub,2013-07-07 21:17:00,
2013-07-07 17:22:00,87.3,76.6,29.91,East,90,16.0,19.0,71,0.00,,,0.15,meteohub,2013-07-07 21:22:00,
2013-07-07 17:27:00,87.4,76.8,29.91,SE,135,16.0,19.0,71,0.00,,,0.15,meteohub,2013-07-07 21:27:00,
2013-07-07 17:32:00,87.3,77.5,29.91,NE,45,11.0,17.0,73,0.00,,,0.15,meteohub,2013-07-07 21:32:00,
2013-07-07 17:37:00,88.2,77.5,29.91,NE,45,9.0,16.0,71,0.00,,,0.15,meteohub,2013-07-07 21:37:00,
2013-07-07 17:42:00,87.8,77.7,29.91,East,90,10.0,16.0,72,0.00,,,0.15,meteohub,2013-07-07 21:42:00,
2013-07-07 17:47:00,88.0,77.9,29.91,East,90,11.0,13.0,72,0.00,,,0.15,meteohub,2013-07-07 21:47:00,
2013-07-07 17:52:00,87.8,77.7,29.91,East,90,12.0,17.0,72,0.00,,,0.15,meteohub,2013-07-07 21:52:00,
2013-07-07 17:57:00,87.3,77.5,29.91,NE,45,13.0,17.0,73,0.00,,,0.15,meteohub,2013-07-07 21:57:00,
2013-07-07 18:02:00,87.3,77.2,29.91,East,90,12.0,17.0,72,0.00,,,0.15,meteohub,2013-07-07 22:02:00,
2013-07-07 18:07:00,87.1,77.0,29.90,East,90,11.0,18.0,72,0.00,,,0.15,meteohub,2013-07-07 22:07:00,
2013-07-07 18:12:00,87.3,76.6,29.91,East,90,12.0,20.0,71,0.00,,,0.15,meteohub,2013-07-07 22:12:00,
2013-07-07 18:17:00,87.1,77.4,29.91,NE,45,8.0,20.0,73,0.00,,,0.15,meteohub,2013-07-07 22:17:00,
2013-07-07 18:22:00,87.3,77.2,29.90,SE,135,13.0,18.0,72,0.00,,,0.15,meteohub,2013-07-07 22:22:00,
2013-07-07 18:27:00,87.3,77.2,29.90,North,0,11.0,17.0,72,0.00,,,0.15,meteohub,2013-07-07 22:27:00,
2013-07-07 18:32:00,87.3,77.5,29.90,SE,135,15.0,15.0,73,0.00,,,0.15,meteohub,2013-07-07 22:32:00,
2013-07-07 18:37:00,87.3,77.9,29.90,East,90,11.0,17.0,74,0.00,,,0.15,meteohub,2013-07-07 22:37:00,
2013-07-07 18:42:00,86.9,77.5,29.91,East,90,15.0,17.0,74,0.00,,,0.15,meteohub,2013-07-07 22:42:00,
2013-07-07 18:47:00,86.5,78.1,29.91,North,0,14.0,17.0,76,0.00,,,0.15,meteohub,2013-07-07 22:47:00,
2013-07-07 18:52:00,86.4,78.3,29.91,East,90,14.0,15.0,77,0.00,,,0.15,meteohub,2013-07-07 22:52:00,
2013-07-07 18:57:00,86.0,77.5,29.91,East,90,5.0,15.0,76,0.00,,,0.15,meteohub,2013-07-07 22:57:00,
2013-07-07 19:02:00,85.6,76.5,29.91,East,90,10.0,14.0,74,0.00,,,0.15,meteohub,2013-07-07 23:02:00,
2013-07-07 19:07:00,84.9,76.1,29.91,East,90,10.0,14.0,75,0.00,,,0.15,meteohub,2013-07-07 23:07:00,
2013-07-07 19:12:00,84.6,76.1,29.91,East,90,11.0,13.0,76,0.00,,,0.15,meteohub,2013-07-07 23:12:00,
2013-07-07 19:17:00,84.6,76.5,29.91,East,90,7.0,14.0,77,0.00,,,0.15,meteohub,2013-07-07 23:17:00,
2013-07-07 19:22:00,84.2,76.3,29.91,North,0,10.0,14.0,77,0.00,,,0.15,meteohub,2013-07-07 23:22:00,
2013-07-07 19:27:00,84.0,76.1,29.91,East,90,11.0,15.0,77,0.00,,,0.15,meteohub,2013-07-07 23:27:00,
2013-07-07 19:32:00,84.0,76.1,29.91,East,90,6.0,15.0,77,0.00,,,0.15,meteohub,2013-07-07 23:32:00,
2013-07-07 19:37:00,84.0,76.1,29.92,East,90,11.0,14.0,77,0.00,,,0.15,meteohub,2013-07-07 23:37:00,
2013-07-07 19:42:00,83.7,76.1,29.92,East,90,10.0,14.0,78,0.00,,,0.15,meteohub,2013-07-07 23:42:00,
2013-07-07 19:47:00,83.5,75.9,29.92,ESE,113,12.0,12.0,78,0.00,,,0.15,meteohub,2013-07-07 23:47:00,
2013-07-07 19:52:00,83.3,76.1,29.92,East,90,10.0,15.0,79,0.00,,,0.15,meteohub,2013-07-07 23:52:00,
2013-07-07 19:57:00,83.1,76.3,29.92,ENE,68,7.0,15.0,80,0.00,,,0.15,meteohub,2013-07-07 23:57:00,
2013-07-07 20:02:00,83.1,76.6,29.92,SE,135,4.0,15.0,81,0.00,,,0.15,meteohub,2013-07-08 00:02:00,
2013-07-07 20:07:00,82.9,76.8,29.92,East,90,7.0,11.0,82,0.00,,,0.00,meteohub,2013-07-08 00:07:00,
2013-07-07 20:12:00,82.8,77.0,29.92,SE,135,10.0,10.0,83,0.00,,,0.00,meteohub,2013-07-08 00:12:00,
2013-07-07 20:17:00,82.6,77.2,29.93,ESE,113,7.0,10.0,84,0.00,,,0.00,meteohub,2013-07-08 00:17:00,
2013-07-07 20:22:00,82.4,77.4,29.93,East,90,7.0,11.0,85,0.00,,,0.00,meteohub,2013-07-08 00:22:00,
2013-07-07 20:27:00,82.4,77.7,29.93,East,90,8.0,11.0,86,0.00,,,0.00,meteohub,2013-07-08 00:27:00,
2013-07-07 20:32:00,82.2,77.5,29.93,East,90,8.0,11.0,86,0.00,,,0.00,meteohub,2013-07-08 00:32:00,
2013-07-07 20:37:00,82.2,77.5,29.93,East,90,4.0,10.0,86,0.00,,,0.00,meteohub,2013-07-08 00:37:00,
2013-07-07 20:42:00,82.0,77.7,29.93,East,90,5.0,11.0,87,0.00,,,0.00,meteohub,2013-07-08 00:42:00,
2013-07-07 20:47:00,82.0,77.7,29.94,East,90,4.0,11.0,87,0.00,,,0.00,meteohub,2013-07-08 00:47:00,
2013-07-07 20:52:00,82.0,78.1,29.94,ESE,113,3.0,11.0,88,0.00,,,0.00,meteohub,2013-07-08 00:52:00,
2013-07-07 20:57:00,81.9,77.9,29.94,East,90,5.0,8.0,88,0.00,,,0.00,meteohub,2013-07-08 00:57:00,
2013-07-07 21:02:00,81.9,77.9,29.93,SE,135,4.0,7.0,88,0.00,,,0.00,meteohub,2013-07-08 01:02:00,
2013-07-07 21:07:00,81.9,77.9,29.94,East,90,6.0,7.0,88,0.00,,,0.00,meteohub,2013-07-08 01:07:00,
2013-07-07 21:12:00,81.9,76.8,29.94,East,90,6.0,7.0,85,0.00,,,0.00,meteohub,2013-07-08 01:12:00,
2013-07-07 21:17:00,82.0,77.0,29.94,East,90,4.0,7.0,85,0.00,,,0.00,meteohub,2013-07-08 01:17:00,
2013-07-07 21:22:00,82.0,77.0,29.94,East,90,4.0,7.0,85,0.00,,,0.00,meteohub,2013-07-08 01:22:00,
2013-07-07 21:27:00,82.0,77.0,29.94,SE,135,2.0,7.0,85,0.00,,,0.00,meteohub,2013-07-08 01:27:00,
2013-07-07 21:32:00,82.0,77.4,29.94,NE,45,6.0,7.0,86,0.00,,,0.00,meteohub,2013-07-08 01:32:00,
2013-07-07 21:37:00,82.0,77.4,29.95,East,90,6.0,8.0,86,0.00,,,0.00,meteohub,2013-07-08 01:37:00,
2013-07-07 21:42:00,82.0,77.0,29.94,SE,135,3.0,8.0,85,0.00,,,0.00,meteohub,2013-07-08 01:42:00,
2013-07-07 21:47:00,82.0,77.0,29.94,East,90,7.0,9.0,85,0.00,,,0.00,meteohub,2013-07-08 01:47:00,
2013-07-07 21:52:00,82.2,76.8,29.95,East,90,4.0,10.0,84,0.00,,,0.00,meteohub,2013-07-08 01:52:00,
2013-07-07 21:57:00,82.2,76.5,29.95,East,90,6.0,10.0,83,0.00,,,0.00,meteohub,2013-07-08 01:57:00,
2013-07-07 22:02:00,82.2,76.1,29.95,East,90,10.0,10.0,82,0.00,,,0.00,meteohub,2013-07-08 02:02:00,
2013-07-07 22:07:00,82.4,76.6,29.95,East,90,6.0,10.0,83,0.00,,,0.00,meteohub,2013-07-08 02:07:00,
2013-07-07 22:12:00,82.2,76.5,29.95,East,90,11.0,11.0,83,0.00,,,0.00,meteohub,2013-07-08 02:12:00,
2013-07-07 22:17:00,82.2,76.8,29.95,East,90,6.0,11.0,84,0.00,,,0.00,meteohub,2013-07-08 02:17:00,
2013-07-07 22:22:00,82.2,76.8,29.95,East,90,7.0,11.0,84,0.00,,,0.00,meteohub,2013-07-08 02:22:00,
2013-07-07 22:27:00,82.4,77.0,29.96,East,90,4.0,11.0,84,0.00,,,0.00,meteohub,2013-07-08 02:27:00,
2013-07-07 22:32:00,82.2,77.2,29.96,East,90,8.0,11.0,85,0.00,,,0.00,meteohub,2013-07-08 02:32:00,
2013-07-07 22:37:00,82.2,77.2,29.96,East,90,9.0,11.0,85,0.00,,,0.00,meteohub,2013-07-08 02:37:00,
2013-07-07 22:42:00,82.0,77.0,29.96,East,90,6.0,11.0,85,0.00,,,0.00,meteohub,2013-07-08 02:42:00,
2013-07-07 22:47:00,81.9,76.8,29.96,NE,45,8.0,11.0,85,0.00,,,0.00,meteohub,2013-07-08 02:47:00,
2013-07-07 22:52:00,81.9,76.8,29.97,East,90,4.0,9.0,85,0.00,,,0.00,meteohub,2013-07-08 02:52:00,
2013-07-07 22:57:00,81.7,76.6,29.97,SSE,158,3.0,8.0,85,0.00,,,0.00,meteohub,2013-07-08 02:57:00,
2013-07-07 23:02:00,81.5,76.8,29.97,NE,45,2.0,8.0,86,0.00,,,0.00,meteohub,2013-07-08 03:02:00,
2013-07-07 23:07:00,81.3,76.6,29.97,East,90,2.0,8.0,86,0.00,,,0.00,meteohub,2013-07-08 03:07:00,
2013-07-07 23:12:00,81.3,77.0,29.97,NE,45,4.0,7.0,87,0.00,,,0.00,meteohub,2013-07-08 03:12:00,
2013-07-07 23:17:00,81.3,77.0,29.98,East,90,8.0,8.0,87,0.00,,,0.00,meteohub,2013-07-08 03:17:00,
2013-07-07 23:22:00,81.5,76.8,29.97,East,90,3.0,8.0,86,0.00,,,0.00,meteohub,2013-07-08 03:22:00,
2013-07-07 23:27:00,81.7,76.6,29.97,East,90,7.0,8.0,85,0.00,,,0.00,meteohub,2013-07-08 03:27:00,
2013-07-07 23:32:00,81.9,76.5,29.97,SE,135,8.0,8.0,84,0.00,,,0.00,meteohub,2013-07-08 03:32:00,
2013-07-07 23:37:00,82.0,76.6,29.98,East,90,4.0,8.0,84,0.00,,,0.00,meteohub,2013-07-08 03:37:00,
2013-07-07 23:42:00,82.0,76.6,29.98,East,90,6.0,8.0,84,0.00,,,0.00,meteohub,2013-07-08 03:42:00,
2013-07-07 23:47:00,82.0,76.6,29.98,East,90,7.0,8.0,84,0.00,,,0.00,meteohub,2013-07-08 03:47:00,
2013-07-07 23:52:00,82.0,76.6,29.98,NE,45,5.0,8.0,84,0.00,,,0.00,meteohub,2013-07-08 03:52:00,
2013-07-07 23:57:00,82.0,76.6,29.97,East,90,4.0,8.0,84,0.00,,,0.00,meteohub,2013-07-08 03:57:00,